Weather History for Windom, MN

Change the Weather History Date:

Sunday, April 13, 2014

  Actual Average Record
Temperature  
Mean Temperature 39 °F -  
Max Temperature 48 °F 54 °F 87 °F (2006)
Min Temperature 28 °F 33 °F 12 °F (1962)
Degree Days  
Heating Degree Days 26    
Moisture  
Dew Point 33 °F    
Average Humidity 82    
Maximum Humidity 100    
Minimum Humidity 69    
Precipitation  
Precipitation 0.00 in - - ()
Sea Level Pressure  
Sea Level Pressure 29.85 in    
Wind  
Wind Speed 19 mph (North)    
Max Wind Speed 36 mph    
Max Gust Speed 43 mph    
Visibility 8 miles    
Events      
Averages and records for this station are not official NWS values.
T = Trace of Precipitation, MM = Missing Value Source: NWS Daily Summary

Daily Weather History Graph

Daily Weather History Graph

Search for Another Location

Airport:

Trip Planner

Search our weather history database for the weather conditions in past years. The results will help you decide how hot, cold, wet, or windy it might be!

Date:

Astronomy

Apr. 13, 2014 Rise Set
Actual Time 6:40 AM CDT 8:01 PM CDT
Civil Twilight 6:10 AM CDT 8:31 PM CDT
Nautical Twilight 5:34 AM CDT 9:07 PM CDT
Astronomical Twilight 4:56 AM CDT 9:46 PM CDT
Moon 6:38 PM CDT (4/13) 5:43 AM CDT (4/13)
Length of Visible Light 14h 21m
Length of Day
13h 21m
Waxing Gibbous, 97% of the Moon is Illuminated
Apr 13
Waxing Gibbous
Apr 15
Full
Apr 22
Last Quarter
Apr 29
New
May 6
First Quarter

Hourly Weather History & Observations

Time (CDT) Temp. Windchill Dew Point Humidity Pressure Visibility Wind Dir Wind Speed Gust Speed Precip Events Conditions
12:13 AM 48.2 °F - 44.6 °F 87% 29.71 in 7.0 mi ENE 8.1 mph - N/A   Overcast
12:32 AM 48.2 °F - 44.6 °F 87% 29.72 in 7.0 mi NNE 8.1 mph - N/A   Overcast
12:52 AM 48.2 °F - 44.6 °F 87% 29.73 in 7.0 mi NE 5.8 mph - N/A   Overcast
1:13 AM 48.2 °F - 44.6 °F 87% 29.73 in 7.0 mi NE 8.1 mph - N/A   Overcast
1:32 AM 46.4 °F 42.4 °F 44.6 °F 93% 29.74 in 7.0 mi NNE 8.1 mph - N/A   Overcast
1:52 AM 46.4 °F 41.9 °F 44.6 °F 93% 29.75 in 7.0 mi NE 9.2 mph - N/A   Mostly Cloudy
2:12 AM 46.4 °F 42.9 °F 42.8 °F 87% 29.76 in 5.0 mi NNE 6.9 mph - N/A   Mostly Cloudy
2:32 AM 46.4 °F 42.4 °F 42.8 °F 87% 29.78 in 5.0 mi NNE 8.1 mph - N/A   Overcast
2:53 AM 46.4 °F 41.5 °F 42.8 °F 87% 29.78 in 5.0 mi NE 10.4 mph - N/A   Overcast
3:12 AM 46.4 °F 42.4 °F 42.8 °F 87% 29.78 in 5.0 mi NNE 8.1 mph - N/A   Overcast
3:32 AM 46.4 °F 42.4 °F 42.8 °F 87% 29.78 in 4.0 mi NNE 8.1 mph - N/A   Overcast
3:53 AM 44.6 °F 38.1 °F 42.8 °F 93% 29.79 in 5.0 mi NNW 13.8 mph - N/A   Overcast
4:12 AM 44.6 °F 38.8 °F 42.8 °F 93% 29.79 in 5.0 mi North 11.5 mph - N/A   Overcast
4:32 AM 44.6 °F 37.8 °F 42.8 °F 93% 29.80 in 5.0 mi NNW 15.0 mph - N/A   Overcast
4:53 AM 44.6 °F 37.2 °F 42.8 °F 93% 29.80 in 5.0 mi NNW 17.3 mph 21.9 mph N/A   Overcast
5:12 AM 42.8 °F 34.0 °F 42.8 °F 100% 29.79 in 5.0 mi North 20.7 mph - N/A   Overcast
5:32 AM 42.8 °F 34.8 °F 41.0 °F 93% 29.80 in 7.0 mi North 17.3 mph 23.0 mph N/A   Overcast
5:53 AM 42.8 °F 35.1 °F 41.0 °F 93% 29.81 in 7.0 mi North 16.1 mph 25.3 mph N/A   Overcast
6:12 AM 42.8 °F 34.3 °F 41.0 °F 93% 29.81 in 7.0 mi NNW 19.6 mph 25.3 mph N/A   Overcast
6:32 AM 42.8 °F 34.0 °F 41.0 °F 93% 29.81 in 5.0 mi North 20.7 mph - N/A   Overcast
6:53 AM 42.8 °F 34.3 °F 41.0 °F 93% 29.83 in 3.0 mi North 19.6 mph 24.2 mph N/A   Overcast
7:12 AM 42.8 °F 34.0 °F 41.0 °F 93% 29.84 in 2.0 mi North 20.7 mph 25.3 mph N/A   Overcast
7:32 AM 41.0 °F 30.9 °F 39.2 °F 93% 29.84 in 2.5 mi NNW 24.2 mph 28.8 mph N/A   Overcast
7:53 AM 37.4 °F 25.9 °F 37.4 °F 100% 29.84 in 3.0 mi NNW 25.3 mph 33.4 mph N/A   Overcast
8:12 AM 37.4 °F 25.2 °F 35.6 °F 93% 29.84 in 7.0 mi NNW 28.8 mph 34.5 mph N/A   Overcast
8:32 AM 37.4 °F 24.8 °F 35.6 °F 93% 29.83 in 10.0 mi NNW 31.1 mph 38.0 mph N/A   Overcast
8:53 AM 35.6 °F 22.1 °F 33.8 °F 93% 29.85 in 10.0 mi NNW 32.2 mph 39.1 mph N/A   Overcast
9:12 AM 35.6 °F 22.1 °F 32.0 °F 87% 29.84 in 10.0 mi NNW 32.2 mph 39.1 mph N/A   Overcast
9:53 AM 35.6 °F 21.5 °F 30.2 °F 81% 29.80 in 10.0 mi NNW 35.7 mph 42.6 mph N/A   Overcast
10:12 AM 35.6 °F 22.5 °F 30.2 °F 81% 29.83 in 10.0 mi NNW 29.9 mph 41.4 mph N/A   Overcast
10:32 AM 33.8 °F 20.1 °F 30.2 °F 87% 29.84 in 10.0 mi NNW 29.9 mph 36.8 mph N/A   Overcast
10:53 AM 33.8 °F 20.8 °F 30.2 °F 87% 29.86 in 10.0 mi NNW 26.5 mph 35.7 mph N/A   Overcast
11:12 AM 33.8 °F 20.1 °F 30.2 °F 87% 29.87 in 10.0 mi NNW 29.9 mph 35.7 mph N/A   Overcast
11:32 AM 35.6 °F 22.7 °F 30.2 °F 81% 29.88 in 10.0 mi North 28.8 mph 33.4 mph N/A   Overcast
11:53 AM 35.6 °F 22.3 °F 30.2 °F 81% 29.88 in 10.0 mi North 31.1 mph 36.8 mph N/A   Overcast
12:12 PM 33.8 °F 20.5 °F 30.2 °F 87% 29.88 in 10.0 mi North 27.6 mph 34.5 mph N/A   Overcast
12:32 PM 33.8 °F 20.5 °F 28.4 °F 81% 29.90 in 10.0 mi North 27.6 mph 33.4 mph N/A   Overcast
12:53 PM 33.8 °F 20.8 °F 30.2 °F 87% 29.89 in 10.0 mi North 26.5 mph 32.2 mph N/A   Overcast
1:12 PM 33.8 °F 20.8 °F 30.2 °F 87% 29.89 in 10.0 mi North 26.5 mph 32.2 mph N/A   Overcast
1:33 PM 33.8 °F 21.3 °F 28.4 °F 81% 29.90 in 10.0 mi North 24.2 mph 29.9 mph N/A   Overcast
1:53 PM 33.8 °F 21.0 °F 28.4 °F 81% 29.90 in 10.0 mi North 25.3 mph 31.1 mph N/A   Overcast
2:12 PM 35.6 °F 23.2 °F 28.4 °F 75% 29.90 in 10.0 mi North 26.5 mph 31.1 mph N/A   Overcast
2:32 PM 35.6 °F 23.2 °F 28.4 °F 75% 29.90 in 10.0 mi North 26.5 mph - N/A   Overcast
2:53 PM 35.6 °F 23.4 °F 28.4 °F 75% 29.89 in 10.0 mi North 25.3 mph 29.9 mph N/A   Overcast
3:12 PM 35.6 °F 23.2 °F 28.4 °F 75% 29.87 in 10.0 mi North 26.5 mph 29.9 mph N/A   Overcast
3:32 PM 35.6 °F 22.7 °F 28.4 °F 75% 29.86 in 10.0 mi NNW 28.8 mph 38.0 mph N/A   Mostly Cloudy
3:53 PM 35.6 °F 22.5 °F 26.6 °F 70% 29.85 in 10.0 mi North 29.9 mph 39.1 mph N/A   Scattered Clouds
4:12 PM 35.6 °F 22.3 °F 26.6 °F 70% 29.85 in 10.0 mi NNW 31.1 mph 39.1 mph N/A   Scattered Clouds
4:32 PM 35.6 °F 22.1 °F 26.6 °F 70% 29.84 in 10.0 mi North 32.2 mph 39.1 mph N/A   Clear
4:53 PM 35.6 °F 23.2 °F 26.6 °F 70% 29.84 in 10.0 mi North 26.5 mph 34.5 mph N/A   Clear
5:12 PM 35.6 °F 23.0 °F 26.6 °F 70% 29.85 in 10.0 mi North 27.6 mph 36.8 mph N/A   Clear
5:32 PM 35.6 °F 24.0 °F 28.4 °F 75% 29.86 in 10.0 mi North 23.0 mph 31.1 mph N/A   Scattered Clouds
5:53 PM 35.6 °F 24.0 °F 26.6 °F 70% 29.87 in 10.0 mi NNW 23.0 mph 29.9 mph N/A   Scattered Clouds
6:12 PM 35.6 °F 23.4 °F 26.6 °F 70% 29.88 in 10.0 mi NNW 25.3 mph 32.2 mph N/A   Scattered Clouds
6:32 PM 35.6 °F 23.7 °F 26.6 °F 70% 29.88 in 10.0 mi NNW 24.2 mph 31.1 mph N/A   Scattered Clouds
7:12 PM 35.6 °F 23.0 °F 26.6 °F 70% 29.86 in 10.0 mi NNW 27.6 mph 35.7 mph N/A   Clear
7:33 PM 35.6 °F 23.0 °F 26.6 °F 70% 29.85 in 10.0 mi NNW 27.6 mph 34.5 mph N/A   Scattered Clouds
7:52 PM 33.8 °F 19.9 °F 24.8 °F 70% 29.86 in 10.0 mi NNW 31.1 mph 34.5 mph N/A   Clear
8:12 PM 33.8 °F 21.0 °F 24.8 °F 70% 29.86 in 10.0 mi NNW 25.3 mph 33.4 mph N/A   Scattered Clouds
8:33 PM 33.8 °F 19.6 °F 24.8 °F 70% 29.87 in 10.0 mi NNW 32.2 mph 38.0 mph N/A   Clear
8:52 PM 32.0 °F 17.4 °F 24.8 °F 75% 29.89 in 10.0 mi NNW 31.1 mph 35.7 mph N/A   Scattered Clouds
9:13 PM 32.0 °F 17.0 °F 24.8 °F 75% 29.89 in 10.0 mi NNW 33.4 mph 39.1 mph N/A   Mostly Cloudy
9:33 PM 30.2 °F 14.1 °F 23.0 °F 75% 29.90 in 10.0 mi NNW 35.7 mph 39.1 mph N/A   Mostly Cloudy
9:52 PM 32.0 °F 17.6 °F 23.0 °F 69% 29.91 in 10.0 mi NNW 29.9 mph 39.1 mph N/A   Mostly Cloudy
10:13 PM 30.2 °F 14.9 °F 23.0 °F 75% 29.93 in 10.0 mi NNW 31.1 mph 40.3 mph N/A   Scattered Clouds
10:33 PM 30.2 °F 14.3 °F 21.2 °F 69% 29.93 in 10.0 mi NNW 34.5 mph 42.6 mph N/A   Scattered Clouds
10:52 PM 30.2 °F 14.7 °F 23.0 °F 75% 29.94 in 10.0 mi NNW 32.2 mph 41.4 mph N/A   Scattered Clouds
11:13 PM 30.2 °F 14.3 °F 23.0 °F 75% 29.95 in 10.0 mi NNW 34.5 mph 42.6 mph N/A   Clear
11:33 PM 30.2 °F 14.7 °F 21.2 °F 69% 29.95 in 10.0 mi NNW 32.2 mph 41.4 mph N/A   Scattered Clouds
11:52 PM 28.4 °F 11.6 °F 21.2 °F 74% 29.96 in 10.0 mi NNW 35.7 mph 40.3 mph N/A   Mostly Cloudy